This demonstration page uses our WeatherBlox Daily Observations layout. Learn more.

41.55636, -103.73856

Hourly Observations for February 24, 2019

Temp ( °F °C ) Dew Point ( °F °C ) Humidity (%) Winds ( mph kmh ) Pressure ( in mb ) Visibility ( mi km ) Precip ( " mm )
12:58 am 00:58 Partly Cloudy 24 -4.4 9 -12.8 52 52 WNW 23 37 30.14 1021 10 16.0934 N/A
1:58 am 01:58 Clear 22 -5.3 9 -12.7 56 56 WNW 20 31 30.16 1021 10 16.0934 N/A
2:58 am 02:58 Clear 21 -5.9 9 -12.9 58 58 WNW 20 31 30.17 1022 10 16.0934 N/A
3:58 am 03:58 Clear 21 -6.1 8 -13.1 58 58 WNW 15 24 30.19 1022 10 16.0934 N/A
4:58 am 04:58 Clear 21 -5.9 10 -12.4 60 60 NW 20 31 30.19 1022 10 16.0934 N/A
5:58 am 05:58 Clear 22 -5.8 10 -12.2 61 61 WNW 21 33 30.19 1022 10 16.0934 N/A
6:58 am 06:58 Clear 20 -6.8 10 -12.1 66 66 WNW 17 28 30.2 1023 10 16.0934 N/A
7:58 am 07:58 Mostly Cloudy 23 -5.2 10 -12 59 59 NW 21 33 30.19 1022 10 16.0934 N/A
8:58 am 08:58 Clear 21 -6.3 10 -12.2 63 63 NW 16 26 30.21 1023 10 16.0934 N/A
9:58 am 09:58 Clear 14 -10 8 -13.5 76 76 NW 7 11 30.22 1023 10 16.0934 N/A
10:58 am 10:58 Clear 15 -9.4 8 -13.1 75 75 NNW 9 15 30.23 1024 10 16.0934 N/A
11:58 am 11:58 Clear 17 -8.3 9 -12.8 70 70 NNW 14 22 30.24 1024 10 16.0934 N/A
12:58 pm 12:58 Clear 16 -8.9 9 -13 72 72 NNW 9 15 30.28 1025 10 16.0934 N/A
1:58 pm 13:58 Sunny 10 -12 7 -14.1 85 85 Calm 30.33 1027 10 16.0934 N/A
2:58 pm 14:58 Sunny 14 -9.9 9 -12.9 79 79 Calm 30.35 1028 10 16.0934 N/A
3:58 pm 15:58 Sunny 18 -7.6 11 -11.9 72 72 Calm 30.33 1027 10 16.0934 N/A
4:58 pm 16:58 Sunny 24 -4.3 11 -11.7 57 57 SSE 6 9 30.28 1025 10 16.0934 N/A
5:58 pm 17:58 Sunny 29 -1.8 10 -12.4 45 45 S 6 9 30.25 1025 10 16.0934 N/A
6:58 pm 18:58 Mostly Sunny 28 -2.2 12 -11 51 51 SE 14 22 30.24 1024 10 16.0934 N/A
7:58 pm 19:58 Partly Cloudy 28 -2.3 14 -10.1 56 56 ESE 13 20 30.2 1023 10 16.0934 N/A
8:58 pm 20:58 Sunny 33 0.7 15 -9.7 46 46 ESE 14 22 30.16 1021 10 16.0934 N/A
9:58 pm 21:58 Partly Cloudy 36 2.2 15 -9.4 42 42 ESE 22 35 30.14 1021 10 16.0934 N/A
10:58 pm 22:58 Sunny 32 0.2 17 -8.6 52 52 SE 18 30 30.14 1021 10 16.0934 N/A
11:58 pm 23:58 Sunny 30 -1 18 -8 59 59 SE 17 28 30.13 1020 10 16.0934 N/A

Powered by AerisWeather